STARLINK-37088, 68322

Orbit data source: Space-Track

STARLINK-37088, 68322 is a payload satellite owned by SpaceX/Seattle (US) in LEO that was launched on Sun, 22 Mar 2026 UTC via an FALCON 9 launch vehicle from the Air Force Eastern Test Range (AFETR). Payload-class satellites include a variety of spacecraft equipped with specific instruments for various scientific and technological missions. These include communications satellites like Starlink; space stations such as the ISS; scientific satellites like the Hubble; Earth observation satellites from companies like Planet Labs, Umbra, and HawkEye 360; GPS; miniature CubeSats for education and research; and military/defense satellites.

Loading next visibility...
Identifier
68322, 2026-059B
Orbit
LEO
Country
Flag of USUS
Related business
Manufacturer
SpaceX/Seattle
Mission
Operational spacecraft
Bus & Motor
STARLINK V2MO, Unknown motor
Mass
575 kg wet, ~530 kg dry
Launch date (UTC)
2026-03-22 (3 months ago)
Launch vehicle
FALCON 9
Launch site
Air Force Eastern Test Range (AFETR)
Object type
Payload
Rocket body
Debris
Shape & HBR
Unknown shape, 17.7 m
Radar Cross Section
Large (>1 m²)

Expand to show TLE details & history
Last TLE update: 10 hours ago

TLE from 10 hours ago
0 STARLINK-37088
1 68322U 26059B   26171.42702399  .00016318  00000-0  49300-3 0  9994
2 68322  53.1573 226.1841 0001141  77.8066 282.3065 15.34402317 13978
Epoch: 2026-06-20T10:14Z
TLE epoch observation values (Epoch: 2026-06-20T10:14:54.872Z)
Latitude
0.00002°
Longitude
163.81368°
Altitude
463.431 km
Speed
7.636 km/s
True Right ascension
15h 04m 44s
True Declination
0° 00' 00"
Sunlit
Object was in full shadow at epoch
Visualization orbit readout
Latitude
Unknown
Longitude
Unknown
Altitude
Unknown
Speed
Unknown
Apparent Right ascension
Unknown
Apparent Declination
Unknown
Sunlit
N/A
Visualization observer readout
Local Sidereal Time
07:13:08
Azimuth
Unknown
Elevation
Unknown
Doppler factor
Unknown
Orbital elements
Apogee altitude
463.734 km
Perigee altitude
462.173 km
Semi-major axis
6,841.091 km
Eccentricity
0.00011
Inclination
53.1573°
RAAN
226.1841°
Arg. of periapsis
77.8066°
True anomaly
282.29373°
Mean anomaly
282.3065°
Eccentric anomaly
282.30011°
Mean motion
3.83579 °/min
Orbital period
93.85 mins
BSTAR
0.000493
Loading maneuver chart data...
Computing Atmospheric mass density...
Loading historical data...
Loading historical data...
Loading historical data...
Loading historical data...
Loading historical data...
Loading historical data...
Loading historical data...

Documentation

Showing up to 5 results
|